FW9704 Weather Reports


time (UTC)temp
C
wind
direction
speed
KPH
gust
KPH
rain 1hr
cm
rain 24hr
cm
rain mn
cm
humidity
%
barometer
mb
20260510190003 26 25 1.6 6.4 0.00 0.00 0.00 60 993.7
20260510184600 26 103 1.6 6.4 0.00 0.00 0.00 58 993.7
20260510183100 27 228 0.0 11.3 0.00 0.00 0.00 48 994.0
20260510181601 26 159 4.8 14.5 0.00 0.00 0.00 60 993.9
20260510180110 27 141 4.8 12.9 0.00 0.00 0.00 53 994.1
20260510180001 27 145 6.4 12.9 0.00 0.00 0.00 56 994.1
20260510174604 26 145 6.4 16.1 0.00 0.00 0.00 56 994.2
20260510173107 26 245 1.6 12.9 0.00 0.00 0.00 61 994.5
20260510171604 26 196 1.6 11.3 0.00 0.00 0.00 65 994.6
20260510170059 26 264 3.2 12.9 0.00 0.00 0.00 68 994.6
20260510170001 26 117 6.4 12.9 0.00 0.00 0.00 69 994.6
20260510164606 25 233 3.2 11.3 0.00 0.00 0.00 70 994.5
20260510163100 25 67 1.6 6.4 0.00 0.00 0.00 72 994.7
20260510161601 25 286 3.2 12.9 0.00 0.00 0.00 78 994.6
20260510161501 25 294 3.2 12.9 0.00 0.00 0.00 77 994.5
20260510160101 23 164 0.0 4.8 0.00 0.00 0.00 81 994.4
20260510160002 23 156 0.0 14.5 0.00 0.00 0.00 81 994.4
20260510154600 23 336 3.2 9.7 0.00 0.00 0.00 82 994.7
20260510153059 22 289 4.8 9.7 0.00 0.00 0.00 86 994.7
20260510151606 21 79 1.6 6.4 0.00 0.00 0.00 90 994.6
20260510150109 20 146 0.0 4.8 0.00 0.00 0.00 94 994.4
20260510150002 20 146 0.0 4.8 0.00 0.00 0.00 95 994.4
20260510144608 18 186 0.0 4.8 0.00 0.00 0.00 99 994.4
20260510143108 18 122 1.6 3.2 0.00 0.00 0.00 100 994.4
20260510141559 17 124 0.0 4.8 0.00 0.00 0.00 100 994.3
20260510140059 17 119 3.2 4.8 0.00 0.00 0.00 100 994.3
20260510140002 17 129 3.2 4.8 0.00 0.00 0.00 100 994.3
20260510134607 16 143 0.0 4.8 0.00 0.00 0.00 100 994.4
20260510133100 16 116 1.6 3.2 0.00 0.00 0.00 100 994.3
20260510131559 15 87 0.0 0.0 0.00 0.00 0.00 100 994.3
20260510130117 15 87 0.0 0.0 0.00 0.00 0.00 100 994.1
20260510130002 15 87 0.0 0.0 0.00 0.00 0.00 100 994.1
20260510124605 14 82 0.0 0.0 0.00 0.00 0.00 100 994.1
20260510123100 13 22 0.0 0.0 0.00 0.00 0.00 100 994.0
20260510121559 12 23 0.0 0.0 0.00 0.00 0.00 100 994.2
20260510120059 12 51 0.0 0.0 0.00 0.00 0.00 100 993.7
20260510120002 12 51 0.0 0.0 0.00 0.00 0.00 100 993.7
20260510114559 12 51 0.0 0.0 0.00 0.00 0.00 100 993.1
20260510113112 12 330 0.0 0.0 0.00 0.00 0.00 100 992.9
20260510111559 12 359 0.0 0.0 0.00 0.00 0.00 100 992.7
20260510110059 12 330 0.0 0.0 0.00 0.00 0.00 99 992.4
20260510110001 12 330 0.0 0.0 0.00 0.00 0.00 99 992.4
20260510104559 12 330 0.0 0.0 0.00 0.00 0.00 99 992.2
20260510103100 12 330 0.0 0.0 0.00 0.00 0.00 99 992.1
20260510101602 12 330 0.0 0.0 0.00 0.00 0.00 99 992.0
20260510100107 12 330 0.0 0.0 0.00 0.00 0.00 99 991.8
20260510100002 12 330 0.0 0.0 0.00 0.00 0.00 99 991.8
20260510094559 12 330 0.0 0.0 0.00 0.00 0.00 99 991.6
20260510093100 12 330 0.0 0.0 0.00 0.00 0.00 98 991.4
20260510091601 12 330 0.0 0.0 0.00 0.00 0.00 99 991.4
20260510090002 12 330 0.0 0.0 0.00 0.00 0.00 99 991.4
20260510084601 12 234 0.0 0.0 0.00 0.00 0.00 98 991.4
20260510083102 13 244 0.0 0.0 0.00 0.00 0.00 98 991.4
20260510081559 13 244 0.0 0.0 0.00 0.00 0.00 98 991.3
20260510080105 13 244 0.0 0.0 0.00 0.00 0.00 98 991.1
20260510080001 13 244 0.0 0.0 0.00 0.00 0.00 98 991.1
20260510074559 13 244 0.0 0.0 0.00 0.00 0.00 98 991.0
20260510073116 13 244 0.0 0.0 0.00 0.00 0.00 98 990.9
20260510071559 13 244 0.0 0.0 0.00 0.00 0.00 98 990.9
20260510070106 13 244 0.0 0.0 0.00 0.00 0.00 98 990.8
20260510064636 14 244 0.0 0.0 0.00 0.00 0.00 97 991.1
20260510063058 14 244 0.0 0.0 0.00 0.00 0.00 97 991.0
20260510061558 14 244 0.0 0.0 0.00 0.00 0.00 97 990.9
20260510060058 15 244 0.0 0.0 0.00 0.00 0.00 97 991.0
20260510060007 15 244 0.0 0.0 0.00 0.00 0.00 97 991.0
20260510054501 15 244 0.0 0.0 0.00 0.00 0.00 97 990.9
20260510053003 15 244 0.0 0.0 0.00 0.00 0.00 96 991.1
20260510051502 15 244 0.0 0.0 0.00 0.00 0.00 96 991.1
20260510050006 16 244 0.0 0.0 0.00 0.00 0.00 95 991.0
20260510044501 16 244 0.0 0.0 0.00 0.00 0.00 96 990.9
20260510043002 16 244 0.0 3.2 0.00 0.00 0.00 96 991.0
20260510041503 16 234 0.0 4.8 0.00 0.00 0.00 96 991.1
20260510040002 16 227 1.6 6.4 0.00 0.00 0.00 95 991.2
20260510034618 16 219 0.0 3.2 0.00 0.00 0.00 95 991.3
20260510033106 16 258 0.0 1.6 0.00 0.00 0.00 94 991.1
20260510031601 16 268 0.0 0.0 0.00 0.00 0.00 94 991.1
20260510030110 17 223 0.0 0.0 0.00 0.00 0.00 93 991.1
20260510030003 17 223 0.0 0.0 0.00 0.00 0.00 93 991.1
20260510024602 17 223 0.0 4.8 0.00 0.00 0.00 93 990.9
20260510023100 17 255 0.0 0.0 0.00 0.00 0.00 92 990.8
20260510021605 17 255 0.0 1.6 0.00 0.00 0.00 91 990.5
20260510020100 18 274 0.0 0.0 0.00 0.00 0.00 89 990.2
20260510020003 18 274 0.0 0.0 0.00 0.00 0.00 89 990.2
20260510014607 18 274 0.0 0.0 0.00 0.00 0.00 89 989.7
20260510013135 18 274 0.0 0.0 0.00 0.00 0.00 86 989.5
20260510011600 20 274 0.0 0.0 0.00 0.00 0.00 85 989.2
20260510010059 20 274 0.0 0.0 0.00 0.00 0.00 83 988.9
20260510010002 20 274 0.0 0.0 0.00 0.00 0.00 83 988.9
20260510004600 21 274 0.0 0.0 0.00 0.00 0.00 82 988.6
20260510003107 22 274 0.0 0.0 0.00 0.00 0.00 79 988.5
20260510001600 22 274 0.0 0.0 0.00 0.00 0.00 77 988.4
20260510000127 22 274 0.0 4.8 0.00 0.00 0.00 76 988.4
20260510000002 22 274 0.0 4.8 0.00 0.00 0.00 76 988.4
20260509234700 23 266 0.0 0.0 0.00 0.00 0.00 74 988.1
20260509233100 23 276 1.6 4.8 0.00 0.00 0.00 73 988.2
20260509231623 24 274 1.6 4.8 0.00 0.00 0.00 73 988.3
20260509230109 24 265 0.0 3.2 0.00 0.00 0.00 74 988.1
20260509230003 24 265 0.0 3.2 0.00 0.00 0.00 73 988.1
20260509224600 24 256 0.0 3.2 0.00 0.00 0.00 69 988.1
20260509223111 25 274 0.0 1.6 0.00 0.00 0.00 69 987.9
20260509221626 25 218 0.0 4.8 0.00 0.00 0.00 65 987.9
20260509220002 25 275 3.2 11.3 0.00 0.00 0.00 60 987.6
20260509214604 26 294 6.4 14.5 0.00 0.00 0.00 59 987.6
20260509213100 26 268 1.6 11.3 0.00 0.00 0.00 61 987.5
20260509211606 26 279 4.8 16.1 0.00 0.00 0.00 60 987.7
20260509210101 26 304 1.6 12.9 0.00 0.00 0.00 59 987.8
20260509210001 26 330 3.2 12.9 0.00 0.00 0.00 61 987.8
20260509204603 26 233 4.8 9.7 0.00 0.00 0.00 57 987.9
20260509203100 26 267 4.8 12.9 0.00 0.00 0.00 56 988.1
20260509201600 26 307 6.4 16.1 0.00 0.00 0.00 59 988.2
20260509200112 26 260 1.6 8.0 0.00 0.00 0.00 58 988.1
20260509200003 26 253 0.0 8.0 0.00 0.00 0.00 58 988.1
20260509194559 26 222 11.3 17.7 0.00 0.00 0.00 56 988.4
20260509193103 26 308 1.6 16.1 0.00 0.00 0.00 60 988.2
20260509193002 26 282 1.6 16.1 0.00 0.00 0.00 58 988.3
20260509191604 26 311 6.4 16.1 0.00 0.00 0.00 59 988.4